When you browse on this site, cookies collect data to enhance your experience and personalize the content and advertising you see.
Visit our Privacy Policy to learn more. By continuing to use the site, you agree to this use of cookies and data.
  • In Österreich
  • Länderverzeichnis
  • Für 7 Tage
  • Wassertemperatur
  • Satellitenkarten
  • Wetterkarte
  • News
  • Widgets
  • user-avatar
    Anmelden

    Stündliche Wetter Giumri

    Heute, 27 Juni, Donnerstag

    Zeit Temperatur Niederschläge Wind Luftdruck Luftfeuchtigkeit
    00:00 +16°C° 0.2 mm 2 m/S 636 mmHg 78%
    01:00 +16°C° 0.1 mm 2 m/S 636 mmHg 79%
    02:00 +16°C° 0.1 mm 2 m/S 635 mmHg 80%
    03:00 +15°C° 0.1 mm 2 m/S 635 mmHg 81%
    04:00 +16°C° 0 mm 2 m/S 635 mmHg 81%
    05:00 +16°C° 0 mm 2 m/S 635 mmHg 81%
    06:00 +17°C° 0 mm 2 m/S 636 mmHg 82%
    07:00 +19°C° 0.1 mm 2 m/S 636 mmHg 76%
    08:00 +20°C° 0.1 mm 2 m/S 636 mmHg 71%
    09:00 +23°C° 0.1 mm 2 m/S 637 mmHg 66%
    10:00 +24°C° 0.3 mm 2 m/S 636 mmHg 62%
    11:00 +25°C° 0.3 mm 2 m/S 636 mmHg 58%
    12:00 +27°C° 0.3 mm 2 m/S 636 mmHg 55%
    13:00 +27°C° 0.4 mm 3 m/S 636 mmHg 55%
    14:00 +27°C° 0.4 mm 3 m/S 636 mmHg 55%
    15:00 +27°C° 0.4 mm 4 m/S 636 mmHg 56%
    16:00 +26°C° 0.3 mm 4 m/S 635 mmHg 60%
    17:00 +25°C° 0.3 mm 3 m/S 635 mmHg 64%
    18:00 +24°C° 0.3 mm 3 m/S 634 mmHg 69%
    19:00 +21°C° 0.2 mm 3 m/S 634 mmHg 73%
    20:00 +19°C° 0.2 mm 2 m/S 634 mmHg 78%
    21:00 +17°C° 0.2 mm 2 m/S 633 mmHg 82%
    22:00 +17°C° 0.1 mm 2 m/S 633 mmHg 82%
    23:00 +17°C° 0.1 mm 2 m/S 633 mmHg 81%

    Morgen, 28 Juni, Freitag

    Zeit Temperatur Niederschläge Wind Luftdruck Luftfeuchtigkeit
    00:00 +18°C° 0.1 mm 1 m/S 633 mmHg 81%
    01:00 +16°C° 0 mm 2 m/S 632 mmHg 82%
    02:00 +16°C° 0 mm 2 m/S 632 mmHg 84%
    03:00 +15°C° 0 mm 2 m/S 632 mmHg 85%
    04:00 +16°C° 0 mm 2 m/S 632 mmHg 85%
    05:00 +16°C° 0 mm 2 m/S 632 mmHg 84%
    06:00 +17°C° 0 mm 2 m/S 632 mmHg 84%
    07:00 +18°C° 0.1 mm 2 m/S 632 mmHg 78%
    08:00 +20°C° 0.1 mm 2 m/S 632 mmHg 73%
    09:00 +23°C° 0.1 mm 2 m/S 632 mmHg 67%
    10:00 +24°C° 0.7 mm 2 m/S 632 mmHg 64%
    11:00 +25°C° 0.7 mm 2 m/S 632 mmHg 61%
    12:00 +26°C° 0.7 mm 1 m/S 632 mmHg 58%
    13:00 +26°C° 0.8 mm 2 m/S 632 mmHg 57%
    14:00 +26°C° 0.8 mm 2 m/S 631 mmHg 57%
    15:00 +26°C° 0.8 mm 3 m/S 631 mmHg 56%
    16:00 +23°C° 2.1 mm 4 m/S 630 mmHg 66%
    17:00 +21°C° 2.1 mm 4 m/S 630 mmHg 77%
    18:00 +17°C° 2.1 mm 5 m/S 629 mmHg 87%
    19:00 +17°C° 1 mm 4 m/S 629 mmHg 87%
    20:00 +17°C° 1 mm 3 m/S 630 mmHg 87%
    21:00 +16°C° 1 mm 1 m/S 630 mmHg 88%
    22:00 +16°C° 0 mm 1 m/S 630 mmHg 87%
    23:00 +15°C° 0 mm 1 m/S 629 mmHg 85%

    übermorgen, 29 Juni, Samstag

    Zeit Temperatur Niederschläge Wind Luftdruck Luftfeuchtigkeit
    00:00 +15°C° 0 mm 1 m/S 629 mmHg 84%
    01:00 +15°C° 0 mm 1 m/S 629 mmHg 85%
    02:00 +14°C° 0 mm 1 m/S 628 mmHg 86%
    03:00 +14°C° 0 mm 1 m/S 628 mmHg 87%
    04:00 +15°C° 0.1 mm 1 m/S 628 mmHg 86%
    05:00 +15°C° 0.1 mm 1 m/S 629 mmHg 86%
    06:00 +16°C° 0.1 mm 1 m/S 629 mmHg 86%
    07:00 +18°C° 0.3 mm 1 m/S 629 mmHg 82%
    08:00 +19°C° 0.3 mm 1 m/S 629 mmHg 79%
    09:00 +21°C° 0.3 mm 1 m/S 629 mmHg 76%
    10:00 +22°C° 1.2 mm 1 m/S 629 mmHg 72%
    11:00 +23°C° 1.2 mm 1 m/S 630 mmHg 67%
    12:00 +24°C° 1.2 mm 1 m/S 630 mmHg 62%
    13:00 +24°C° 1.2 mm 1 m/S 630 mmHg 61%
    14:00 +25°C° 1.2 mm 2 m/S 630 mmHg 59%
    15:00 +25°C° 1.2 mm 2 m/S 629 mmHg 58%
    16:00 +23°C° 2.9 mm 2 m/S 629 mmHg 67%
    17:00 +20°C° 2.9 mm 3 m/S 629 mmHg 76%
    18:00 +18°C° 2.9 mm 4 m/S 628 mmHg 85%
    19:00 +17°C° 0.4 mm 3 m/S 629 mmHg 86%
    20:00 +16°C° 0.4 mm 2 m/S 629 mmHg 87%
    21:00 +16°C° 0.4 mm 2 m/S 629 mmHg 88%
    22:00 +15°C° 0 mm 2 m/S 629 mmHg 88%
    23:00 +14°C° 0 mm 2 m/S 629 mmHg 88%

    30 Juni, Sonntag

    Zeit Temperatur Niederschläge Wind Luftdruck Luftfeuchtigkeit
    00:00 +14°C° 0 mm 2 m/S 629 mmHg 88%
    01:00 +13°C° 0.1 mm 2 m/S 629 mmHg 89%
    02:00 +13°C° 0.1 mm 2 m/S 629 mmHg 90%
    03:00 +13°C° 0.1 mm 2 m/S 629 mmHg 90%
    04:00 +13°C° 0 mm 2 m/S 629 mmHg 89%
    05:00 +13°C° 0 mm 2 m/S 629 mmHg 87%
    06:00 +13°C° 0 mm 2 m/S 629 mmHg 86%
    07:00 +14°C° 0 mm 2 m/S 629 mmHg 79%
    08:00 +16°C° 0 mm 2 m/S 630 mmHg 72%
    09:00 +17°C° 0 mm 2 m/S 630 mmHg 65%
    10:00 +18°C° 0 mm 2 m/S 630 mmHg 61%
    11:00 +19°C° 0 mm 2 m/S 630 mmHg 57%
    12:00 +20°C° 0 mm 2 m/S 631 mmHg 54%
    13:00 +21°C° 0.2 mm 2 m/S 630 mmHg 54%
    14:00 +21°C° 0.2 mm 2 m/S 630 mmHg 55%
    15:00 +21°C° 0.2 mm 2 m/S 630 mmHg 55%
    16:00 +20°C° 0.4 mm 3 m/S 630 mmHg 62%
    17:00 +19°C° 0.4 mm 4 m/S 630 mmHg 69%
    18:00 +17°C° 0.4 mm 4 m/S 630 mmHg 76%
    19:00 +15°C° 0.8 mm 4 m/S 630 mmHg 79%
    20:00 +13°C° 0.8 mm 5 m/S 630 mmHg 83%
    21:00 +12°C° 0.8 mm 5 m/S 630 mmHg 86%
    22:00 +11°C° 0.2 mm 4 m/S 630 mmHg 85%
    23:00 +11°C° 0.2 mm 3 m/S 630 mmHg 84%

    1 Juli, Montag

    Zeit Temperatur Niederschläge Wind Luftdruck Luftfeuchtigkeit
    00:00 +10°C° 0.2 mm 2 m/S 630 mmHg 83%
    01:00 +10°C° 0.2 mm 2 m/S 630 mmHg 84%
    02:00 +10°C° 0.2 mm 1 m/S 630 mmHg 86%
    03:00 +10°C° 0.2 mm 1 m/S 630 mmHg 87%
    04:00 +9°C° 0 mm 2 m/S 630 mmHg 86%
    05:00 +9°C° 0 mm 2 m/S 630 mmHg 85%
    06:00 +9°C° 0 mm 2 m/S 630 mmHg 84%
    07:00 +10°C° 0 mm 2 m/S 631 mmHg 75%
    08:00 +12°C° 0 mm 3 m/S 631 mmHg 67%
    09:00 +13°C° 0 mm 3 m/S 632 mmHg 58%
    10:00 +14°C° 0 mm 3 m/S 632 mmHg 56%
    11:00 +15°C° 0 mm 4 m/S 632 mmHg 54%
    12:00 +17°C° 0 mm 4 m/S 633 mmHg 52%
    13:00 +17°C° 0.3 mm 4 m/S 633 mmHg 53%
    14:00 +16°C° 0.3 mm 5 m/S 633 mmHg 53%
    15:00 +16°C° 0.3 mm 5 m/S 633 mmHg 54%
    16:00 +15°C° 0.1 mm 5 m/S 633 mmHg 56%
    17:00 +15°C° 0.1 mm 5 m/S 633 mmHg 58%
    18:00 +14°C° 0.1 mm 4 m/S 633 mmHg 60%
    19:00 +12°C° 0 mm 3 m/S 633 mmHg 65%
    20:00 +10°C° 0 mm 3 m/S 633 mmHg 70%
    21:00 +8°C° 0 mm 2 m/S 633 mmHg 75%
    22:00 +7°C° 0 mm 2 m/S 633 mmHg 76%
    23:00 +7°C° 0 mm 2 m/S 633 mmHg 77%

    2 Juli, Dienstag

    Zeit Temperatur Niederschläge Wind Luftdruck Luftfeuchtigkeit
    00:00 +7°C° 0 mm 1 m/S 633 mmHg 78%
    01:00 +7°C° 0 mm 1 m/S 633 mmHg 78%
    02:00 +7°C° 0 mm 1 m/S 633 mmHg 78%
    03:00 +7°C° 0 mm 1 m/S 634 mmHg 78%
    04:00 +8°C° 0 mm 1 m/S 634 mmHg 77%
    05:00 +8°C° 0 mm 1 m/S 634 mmHg 75%
    06:00 +9°C° 0 mm 1 m/S 635 mmHg 74%
    07:00 +10°C° 0 mm 2 m/S 635 mmHg 70%
    08:00 +12°C° 0 mm 2 m/S 636 mmHg 67%
    09:00 +14°C° 0 mm 2 m/S 636 mmHg 63%
    10:00 +15°C° 0 mm 2 m/S 637 mmHg 60%
    11:00 +17°C° 0 mm 2 m/S 637 mmHg 58%
    12:00 +19°C° 0 mm 1 m/S 637 mmHg 55%
    13:00 +20°C° 0 mm 1 m/S 637 mmHg 54%
    14:00 +21°C° 0 mm 1 m/S 637 mmHg 53%
    15:00 +22°C° 0 mm 1 m/S 637 mmHg 52%
    16:00 +21°C° 0 mm 1 m/S 637 mmHg 54%
    17:00 +21°C° 0 mm 1 m/S 637 mmHg 57%
    18:00 +21°C° 0 mm 1 m/S 637 mmHg 59%
    19:00 +19°C° 0 mm 1 m/S 636 mmHg 65%
    20:00 +16°C° 0 mm 1 m/S 636 mmHg 72%
    21:00 +14°C° 0 mm 1 m/S 635 mmHg 78%
    22:00 +13°C° 0 mm 1 m/S 635 mmHg 79%
    23:00 +13°C° 0 mm 1 m/S 635 mmHg 81%
    Mehr zeigen